This demonstration page uses our WeatherBlox Daily Observations layout. Learn more.

40.92945, -100.16068

Hourly Observations for March 24, 2018

Temp ( °F °C ) Dew Point ( °F °C ) Humidity (%) Winds ( mph kmh ) Pressure ( in mb ) Visibility ( mi km ) Precip ( " mm )
12:15 am 00:15 Clear with Mist and Fog 40 4.7 38 3.4 91 91 NNW 6 9 29.88 1012 5 8.0467 0 0
12:35 am 00:35 Mostly Cloudy with Mist and Fog 42 5.5 40 4.2 91 91 N 3 6 29.85 1011 5 8.0467 0 0
12:55 am 00:55 Mostly Cloudy with Mist and Fog 42 5.5 39 4.1 91 91 N 3 6 29.85 1011 5 8.0467 0 0
1:15 am 01:15 Clear with Mist and Fog 40 4.7 38 3.4 91 91 N 5 7 29.88 1012 5 8.0467 0 0
1:35 am 01:35 Mostly Cloudy with Mist and Fog 39 3.7 37 2.6 93 93 WNW 6 9 29.91 1013 3 4.82802 0 0
1:55 am 01:55 Cloudy with Mist and Fog 40 4.3 38 3.3 93 93 WNW 5 7 29.91 1013 3 4.82802 0 0
2:15 am 02:15 Cloudy with Mist and Fog 40 4.6 38 3.6 93 93 WNW 8 13 29.91 1013 4 6.43736 0 0
2:35 am 02:35 Cloudy with Mist and Fog 41 4.9 39 3.8 93 93 WNW 8 13 29.91 1013 4 6.43736 0 0
2:55 am 02:55 Cloudy with Mist and Fog 41 5.2 39 4.1 93 93 NW 8 13 29.91 1013 5 8.0467 0 0
3:15 am 03:15 Cloudy with Mist and Fog 42 5.6 40 4.5 93 93 NW 8 13 29.94 1014 5 8.0467 0 0
3:35 am 03:35 Cloudy with Mist and Fog 43 6 40 4.5 90 90 WNW 8 13 29.91 1013 5 8.0467 0 0
3:55 am 03:55 Cloudy with Mist and Fog 43 6.2 41 4.8 91 91 NW 7 11 29.91 1013 5 8.0467 0 0
4:15 am 04:15 Cloudy with Mist and Fog 43 6.3 41 5 91 91 NNW 6 9 29.91 1013 5 8.0467 0 0
4:35 am 04:35 Cloudy 44 6.8 41 5.1 89 89 NW 9 15 29.91 1013 7 11.26538 0 0
4:55 am 04:55 Cloudy 45 7 41 5.2 88 88 NW 9 15 29.91 1013 7 11.26538 0 0
5:15 am 05:15 Cloudy 45 7.1 41 5.2 88 88 NW 10 17 29.94 1014 7 11.26538 0 0
5:35 am 05:35 Cloudy 46 7.5 42 5.3 86 86 NNW 13 20 29.94 1014 10 16.0934 0 0
5:55 am 05:55 Cloudy 46 7.6 40 4.7 82 82 NNW 24 39 29.94 1014 10 16.0934 0 0
6:15 am 06:15 Mostly Cloudy 44 6.9 39 3.8 81 81 NNW 21 33 29.97 1015 10 16.0934 0 0
6:35 am 06:35 Mostly Cloudy 43 6.3 38 3.5 82 82 NNW 16 26 29.97 1015 10 16.0934 0 0
6:55 am 06:55 Cloudy 43 6 38 3.2 82 82 NNW 14 22 30 1016 10 16.0934 0 0
7:15 am 07:15 Cloudy 42 5.5 37 2.8 83 83 NW 14 22 30.03 1017 10 16.0934 0 0
7:35 am 07:35 Cloudy 42 5.5 37 2.7 82 82 NNW 16 26 30 1016 10 16.0934 0 0
7:55 am 07:55 Mostly Cloudy 41 5 36 2.1 82 82 NNW 18 30 30.03 1017 10 16.0934 0 0
8:15 am 08:15 Partly Cloudy 40 4.3 35 1.7 83 83 NNW 12 19 30.03 1017 10 16.0934 0 0
8:35 am 08:35 Mostly Cloudy 41 4.8 35 1.7 81 81 NW 20 31 30.03 1017 10 16.0934 0 0
8:55 am 08:55 Cloudy 41 5 36 2.1 82 82 NW 16 26 30.03 1017 10 16.0934 0 0
9:15 am 09:15 Cloudy 41 5.2 36 2.1 81 81 NW 17 28 30.06 1018 10 16.0934 0 0
9:35 am 09:35 Cloudy 42 5.5 37 2.5 81 81 NNW 16 26 30.06 1018 10 16.0934 0 0
9:55 am 09:55 Cloudy 42 5.7 37 2.5 80 80 NNW 15 24 30.06 1018 10 16.0934 0 0
10:15 am 10:15 Cloudy 43 6.2 37 2.8 79 79 NNW 17 28 30.06 1018 10 16.0934 0 0
10:35 am 10:35 Cloudy 43 6.3 37 2.7 78 78 NNW 16 26 30.06 1018 10 16.0934 0 0
10:55 am 10:55 Cloudy 44 6.6 37 2.9 77 77 N 14 22 30.09 1019 10 16.0934 0 0
11:15 am 11:15 Cloudy 44 6.9 38 3.2 78 78 N 13 20 30.09 1019 10 16.0934 0 0
11:35 am 11:35 Cloudy 45 7 38 3.2 77 77 N 13 20 30.09 1019 10 16.0934 0 0
11:55 am 11:55 Cloudy 45 7.2 38 3.3 77 77 N 13 20 30.06 1018 10 16.0934 0 0
12:15 pm 12:15 Cloudy 45 7.4 38 3.1 74 74 N 12 19 30.06 1018 10 16.0934 0 0
12:35 pm 12:35 Cloudy 45 7.4 38 3.1 74 74 N 12 19 30.06 1018 10 16.0934 0 0
12:55 pm 12:55 Cloudy 46 7.5 38 3.4 75 75 N 14 22 30.06 1018 10 16.0934 0 0
1:15 pm 13:15 Cloudy 45 7.2 38 3.4 77 77 N 10 17 30.06 1018 10 16.0934 0 0
1:35 pm 13:35 Cloudy 46 7.5 38 3.4 75 75 N 13 20 30.06 1018 10 16.0934 0 0
1:55 pm 13:55 Cloudy 46 7.5 38 3.2 74 74 NNE 13 20 30.06 1018 10 16.0934 0 0
2:15 pm 14:15 Cloudy 45 7.3 37 2.9 74 74 NNE 13 20 30.06 1018 10 16.0934 0 0
2:35 pm 14:35 Cloudy 45 7.2 37 2.8 74 74 NE 13 20 30.06 1018 10 16.0934 0 0
2:55 pm 14:55 Cloudy 44 6.9 36 2.4 73 73 NNE 10 17 30.09 1019 10 16.0934 0 0
3:15 pm 15:15 Cloudy 43 6.3 36 2.4 76 76 NE 10 17 30.09 1019 10 16.0934 0 0
3:35 pm 15:35 Cloudy 43 6.2 36 2.3 76 76 ENE 12 19 30.09 1019 10 16.0934 0 0
3:55 pm 15:55 Cloudy 43 6 36 2.1 76 76 NE 12 19 30.06 1018 10 16.0934 0 0
4:15 pm 16:15 Cloudy 43 6 35 1.8 75 75 ENE 9 15 30.06 1018 10 16.0934 0 0
4:35 pm 16:35 Cloudy 42 5.7 35 1.6 75 75 ENE 13 20 30.06 1018 10 16.0934 0 0
4:55 pm 16:55 Cloudy 42 5.5 34 1.2 74 74 NE 12 19 30.06 1018 10 16.0934 0 0
5:15 pm 17:15 Cloudy 42 5.5 34 0.9 73 73 ENE 8 13 30.06 1018 10 16.0934 0 0
5:35 pm 17:35 Cloudy 42 5.5 33 0.8 72 72 E 8 13 30.06 1018 10 16.0934 0 0
5:55 pm 17:55 Cloudy 41 5.1 33 0.7 74 74 E 12 19 30.06 1018 10 16.0934 0 0
6:15 pm 18:15 Cloudy 41 5 33 0.3 72 72 E 10 17 30.06 1018 10 16.0934 0 0
6:35 pm 18:35 Cloudy 41 4.8 33 0.4 73 73 E 13 20 30.06 1018 10 16.0934 0 0
6:55 pm 18:55 Cloudy 39 4.1 32 0 75 75 E 12 19 30.06 1018 10 16.0934 0 0
7:15 pm 19:15 Cloudy 38 3.5 32 0 78 78 E 10 17 30.09 1019 10 16.0934 0 0
7:35 pm 19:35 Cloudy 37 3 32 -0.1 80 80 E 12 19 30.09 1019 10 16.0934 0 0
7:55 pm 19:55 Cloudy 37 2.6 31 -0.5 80 80 E 15 24 30.09 1019 10 16.0934 0 0
8:15 pm 20:15 Cloudy 37 2.6 31 -0.5 80 80 ESE 8 13 30.09 1019 10 16.0934 0 0
8:35 pm 20:35 Cloudy 37 2.7 32 -0.2 81 81 E 9 15 30.12 1020 10 16.0934 0 0
8:55 pm 20:55 Cloudy 37 2.6 32 -0.1 83 83 SE 12 19 30.12 1020 10 16.0934 0 0
9:15 pm 21:15 Cloudy 36 2.4 32 -0.2 83 83 ESE 9 15 30.12 1020 10 16.0934 0 0
9:35 pm 21:35 Cloudy 36 2.1 31 -0.4 84 84 E 12 19 30.12 1020 10 16.0934 0 0
9:55 pm 21:55 Cloudy 35 1.9 31 -0.6 84 84 ESE 9 15 30.12 1020 10 16.0934 0 0
10:15 pm 22:15 Cloudy 35 1.7 30 -1 82 82 E 14 22 30.12 1020 10 16.0934 0 0
10:35 pm 22:35 Cloudy 35 1.5 30 -1 84 84 ESE 14 22 30.12 1020 10 16.0934 0 0
10:55 pm 22:55 Cloudy 34 1 30 -1.2 85 85 ESE 14 22 30.12 1020 10 16.0934 0 0
11:15 pm 23:15 Cloudy 34 0.9 30 -1.1 87 87 ESE 12 19 30.15 1021 10 16.0934 0 0
11:35 pm 23:35 Cloudy 33 0.6 29 -1.4 87 87 ESE 14 22 30.15 1021 10 16.0934 0 0
11:55 pm 23:55 Cloudy 33 0.5 29 -1.4 87 87 ESE 17 28 30.15 1021 10 16.0934 0 0

Powered by AerisWeather